Regional Weather Roundup
Issued by NWS Sterling, VA

Home | Current Version | Previous Version | Graphics & Text | Print | Product List | Glossary On
Versions: 1 2 3 4 5 6 7 8 9 10 11 12 13 14 15 16 17 18 19 20 21 22 23 24 25 26 27 28 29 30 31 32 33 34 35 36 37 38 39 40 41 42 43 44 45 46 47 48 49 50
035
ASUS41 KLWX 200011
RWRLWX

REGIONAL WEATHER ROUNDUP
NATIONAL WEATHER SERVICE BALTIMORE MD/WASHINGTON DC
800 PM EDT WED JUL 19 2017

Note: "FAIR" indicates few or no clouds below 12,000 feet
with no significant weather and/or obstructions to visibility.
 TC=TEMPERATURE CELSIUS

 * =Non NWS site. Station does not report precipitation (e.g. rain,
    snow, etc.), thunder, or fog.

DCZ001-MDZ009-015-VAZ040>042-051-053>054-200100-
WASHINGTON METRO

CITY           SKY/WX    TMP DP  RH WIND       PRES   REMARKS
WASHINGTON NAT PTCLDY    91  70  49 SW12      30.00R HX  96
DULLES         PTCLDY    88  69  53 W3        30.02R HX  92
ANDREWS AFB    CLEAR     88  70  55 S7        30.01R HX  92
FT BELVOIR     CLEAR     88  72  59 S3        30.01R HX  94
QUANTICO       CLEAR     89  75  63 S7        30.01R HX  99
COLLEGE PARK*  CLEAR     89  73  59 N6        30.00R HX  97
LEESBURG*      MOCLDY    88  73  62 CALM      30.03R HX  96
MANASSAS*      CLEAR     88  73  61 SW3       30.02R HX  95
GAITHERSBURG*  CLEAR     85  69  58 NW3       30.04R

$$

MDZ006>007-011-014-200100-
BALTIMORE METRO

CITY           SKY/WX    TMP DP  RH WIND       PRES   REMARKS
BWI AIRPORT    PTCLDY    87  75  67 S5        30.00R HX  96
MD SCIENCE CTR   N/A     91  73  55 MISG      30.00R HX  99
MARTIN STATE   PTCLDY    86  79  79 S7        30.01R HX  99
ANNAPOLIS      CLEAR     84  80  88 S8        30.00R HX  97
FORT MEADE*    CLEAR     82  73  74 CALM      30.02R

$$

MDZ012-015-019>023-200100-
MARYLAND EASTERN SHORE

CITY           SKY/WX    TMP DP  RH WIND       PRES   REMARKS
OCEAN CITY     PTCLDY    80  75  84 S8        30.03S
SALISBURY      CLEAR     84  73  70 S7        30.02R HX  91
BAY BRIDGE AP* CLEAR     88  75  66 S6        30.00R HX  97
CAMBRIDGE*     CLEAR     86  73  66 S5        30.01S HX  93
EASTON*        PTCLDY    90  70  51 SW5       30.04R HX  95

$$

MDZ017>025-200100-
SOUTHERN MARYLAND

CITY           SKY/WX    TMP DP  RH WIND       PRES   REMARKS
PATUXENT RIVER PTCLDY    84  75  74 S6        30.01R HX  92
ST INIGOES     CLEAR     85  73  67 SE5       30.01R HX  91
LEONARDTOWN*   NOT AVBL

$$

MDZ003>005-200100-
NORTH CENTRAL MARYLAND

CITY           SKY/WX    TMP DP  RH WIND       PRES   REMARKS
FREDERICK*     CLEAR     90  64  43 W6        30.04R HX  91
HAGERSTOWN APT CLEAR     90  69  50 SW5       30.04R HX  94
WESTMINSTER*   CLEAR     91  66  43 W5        30.05R HX  94

$$

MDZ501>502-200100-
WESTERN MARYLAND

CITY           SKY/WX    TMP DP  RH WIND       PRES   REMARKS
OAKLAND*       PTCLDY    73  64  73 W5        30.18R
CUMBERLAND*    CLEAR     90  64  43 NW5       30.09R HX  91

$$

VAZ025>031-200100-
SHENANDOAH VALLEY

CITY           SKY/WX    TMP DP  RH WIND       PRES   REMARKS
WINCHESTER*    CLEAR     82  70  65 SE3       30.05R
FRONT ROYAL*   CLEAR     88  72  58 CALM      30.03R HX  94
LURAY*         PTCLDY    86  70  58 CALM      30.04S HX  90
NEW MARKET*    PTCLDY    81  68  64 CALM      30.03S
STAUNTON*      CLEAR     87  64  46 CALM      30.09R
WAYNESBORO*    CLOUDY    85  67  54 CALM      30.09R

$$

WVZ021-048>050-054>055-200100-
EASTERN WEST VIRGINIA PANHANDLE

CITY           SKY/WX    TMP DP  RH WIND       PRES   REMARKS
MARTINSBURG    CLEAR     87  68  52 CALM      30.03R HX  90
PETERSBURG*    CLEAR     88  65  47 NW6       30.07R HX  90

$$

VAZ036>039-050-200100-
CENTRAL FOOTHILLS

CITY           SKY/WX    TMP DP  RH WIND       PRES   REMARKS
CHARLOTTESVILL CLEAR     89  70  53 NE5       30.03R HX  94
CULPEPER*      CLEAR     87  75  68 CALM      30.03R HX  96
ORANGE*        CLEAR     86  73  66 CALM      30.02R HX  93
GORDONSVILLE*  CLEAR     88  71  56 CALM      30.02R HX  94
WARRENTON*     CLEAR     86  72  62 CALM      30.02R HX  92

$$

VAZ055>057-200100-
NORTH AND CENTRAL PIEDMONT

CITY           SKY/WX    TMP DP  RH WIND       PRES   REMARKS
FREDERICKSBRG* CLEAR     87  76  68 SE5       30.00R HX  97
STAFFORD*      CLEAR     86  74  66 CALM      30.05R HX  93

$$

NCZ024-NYZ072-PAZ021-071-VAZ022-071-200100-
OTHER REGIONAL OBSERVATIONS

CITY           SKY/WX    TMP DP  RH WIND       PRES   REMARKS
NEW YORK CITY  CLEAR     89  65  44 VRB3      29.98S HX  91
PHILADELPHIA   PTCLDY    88  71  57 S8        29.99R HX  94
PITTSBURGH     PTCLDY    85  68  56 W6        30.07S
ROANOKE        PTCLDY    89  59  36 CALM      30.09R
RICHMOND       PTCLDY    89  66  46 S6        30.02R HX  91
RALEIGH        PTCLDY    87  67  51 NE5       30.06R HX  90

$$

ANZ530>537-200100-
MARINE OBSERVATIONS

STATION/POSITION TIME  TEMP    WIND        PRES
                       AIR SEA DIR/SP/G
                 (UTC) (F)     (DEG/KT/KT) (MB)
THOMAS PT LIGHT  0000   84 82  180/ 12/ 13   N/A
BALT KEY BRIDGE  2348   86     160/  7/  8 1015.5R
COVE POINT       2348   84     190/ 12/ 14 1016.8R
LEWISETTA        2348   86 87  180/  7/  8 1016.4R
SOLOMONS ISLAND  2348   86 86  170/  8/  9   N/A
PINEY POINT      2342          190/ 10/ 12   N/A

$$





USA.gov is the U.S. government's official web portal to all federal, state and local government web resources and services.